Location: Canazei
(46.4667°N, 11.7667°E)
Time: 18:28:21
(UTC+00:00)

NOSS 3-4 (A) - Pass Details

Date: 21 April 2021
Orbit: 872 x 1340 km, 63.4° (Epoch: 06 May)

Event Time Altitude Azimuth Distance (km) Brightness Sun altitude
Rises 01:46:43 0° 320° (NW) 3,804 6.7 -22.1°
Reaches altitude 10° 01:49:13 10° 320° (NW) 2,911 6.1 -21.8°
Maximum altitude 01:56:13 90° 241° (WSW) 1,172 3.8 -21.0°
Drops below altitude 10° 02:04:03 10° 143° (SE) 3,233 6.1 -20.0°
Sets 02:06:57 0° 144° (SE) 4,247 6.8 -19.7°
